Weather History for Al Ain, United Arab Emirates

Change the Weather History Date:

Friday, January 18, 2013

  Actual Average Record
Temperature  
Mean Temperature 60 °F -  
Max Temperature 71 °F 77 °F 82 °F (1999)
Min Temperature 48 °F 56 °F 48 °F (2008)
Degree Days  
Heating Degree Days 6    
Growing Degree Days 10 (Base 50)    
Moisture  
Dew Point 29 °F    
Average Humidity 33    
Maximum Humidity 72    
Minimum Humidity 7    
Precipitation  
Precipitation 0.00 in - - ()
Sea Level Pressure  
Sea Level Pressure 30.18 in    
Wind  
Wind Speed 7 mph ()    
Max Wind Speed 12 mph    
Max Gust Speed -    
Visibility 6.0 miles    
Events      
Averages and records for this station are not official NWS values.
T = Trace of Precipitation, MM = Missing Value Source: Averaged Metar Reports

Daily Weather History Graph

Daily Weather History Graph

Search for Another Location

Airport:

Trip Planner

Search our weather history database for the weather conditions in past years. The results will help you decide how hot, cold, wet, or windy it might be!

Date:

Astronomy

Jan. 18, 2013 Rise Set
Actual Time 7:02 AM GST 5:53 PM GST
Civil Twilight 6:38 AM GST 6:17 PM GST
Nautical Twilight 6:10 AM GST 6:45 PM GST
Astronomical Twilight 5:43 AM GST 7:12 PM GST
Moon 11:19 AM GST (1/18) No Moon Set
Length of Visible Light 11h 39m
Length of Day
10h 50m
Waxing Crescent, 43% of the Moon is Illuminated
Jan 18
Waxing Crescent
Jan 19
First Quarter
Jan 27
Full
Feb 3
Last Quarter
Feb 10
New

Hourly Weather History & Observations

Time (GST) Temp. Dew Point Humidity Pressure Visibility Wind Dir Wind Speed Gust Speed Precip Events Conditions
12:00 AM 51.8 °F 28.4 °F 41% 30.21 in - NE 9.2 mph - N/A   Clear
1:00 AM 51 °F 28 °F 28% 30.22 in 6 mi NNE 9.2 mph - -  
1:00 AM 51.8 °F 28.4 °F 41% 30.21 in - NNE 9.2 mph - N/A   Clear
2:00 AM 50.0 °F 26.6 °F 40% 30.18 in - NE 8.1 mph - N/A   Clear
3:00 AM 50.0 °F 28.4 °F 43% 30.18 in - NE 9.2 mph - N/A   Clear
4:00 AM 50 °F 26 °F 27% 30.19 in 6 mi NE 9.2 mph - -  
4:00 AM 50.0 °F 26.6 °F 40% 30.15 in - NE 9.2 mph - N/A   Clear
5:00 AM 50.0 °F 28.4 °F 43% 30.15 in - ENE 6.9 mph - N/A   Clear
6:00 AM 50.0 °F 28.4 °F 43% 30.15 in - ENE 8.1 mph - N/A   Clear
7:00 AM 50.0 °F 30.2 °F 47% 30.15 in - East 9.2 mph - N/A   Clear
8:00 AM 51.8 °F 32.0 °F 47% 30.18 in - East 6.9 mph - N/A   Clear
9:00 AM 57.2 °F 33.8 °F 41% 30.21 in - East 6.9 mph - N/A   Clear
10:00 AM 62 °F 34 °F 24% 30.22 in 6 mi South 3.5 mph - -  
10:00 AM 62.6 °F 33.8 °F 34% 30.21 in - South 3.5 mph - N/A   Clear
11:00 AM 66.2 °F 33.8 °F 30% 30.21 in - SSW 9.2 mph - N/A   Clear
12:00 PM 66.2 °F 28.4 °F 24% 30.21 in - SSW 11.5 mph - N/A   Clear
1:00 PM 68 °F 26 °F 11% 30.17 in 6 mi SSW 11.5 mph - -  
1:00 PM 68.0 °F 26.6 °F 21% 30.18 in - SSW 11.5 mph - N/A   Clear
2:00 PM 68.0 °F 23.0 °F 18% 30.15 in - SW 8.1 mph - N/A   Clear
3:00 PM 69.8 °F 21.2 °F 16% 30.12 in - South 5.8 mph - N/A   Clear
4:00 PM 70 °F 19 °F 7% 30.11 in 6 mi West 3.5 mph - -  
4:00 PM 69.8 °F 19.4 °F 15% 30.12 in - West 3.5 mph - N/A   Clear
5:00 PM 69.8 °F 19.4 °F 15% 30.12 in - West 3.5 mph - N/A   Clear
6:00 PM 68.0 °F 17.6 °F 15% 30.15 in - SW 2.3 mph - N/A   Clear
7:00 PM 66.2 °F 17.6 °F 15% 30.18 in - SSW 3.5 mph - N/A   Clear
8:00 PM 64.4 °F 19.4 °F 18% 30.18 in - SW 4.6 mph - N/A   Clear
9:00 PM 60.8 °F 41.0 °F 48% 30.21 in - North 8.1 mph - N/A   Clear
10:00 PM 58 °F 46 °F 53% 30.23 in 6 mi North 8.1 mph - -  
10:00 PM 59.0 °F 46.4 °F 63% 30.21 in - North 8.1 mph - N/A   Clear
11:00 PM 55.4 °F 46.4 °F 72% 30.21 in - North 6.9 mph - N/A   Clear